Chatham, MA

1:02 AM EST on December 12, 2019 (GMT -0500)
Chatham Municipal

Weather History for KCQX - October, 2019

Change the Weather History Date:

Tuesday, October 1, 2019

  Actual Average Record
Temperature  
Mean Temperature 60 °F -  
Max Temperature 66 °F 63 °F 75 °F (2010)
Min Temperature 54 °F 49 °F 38 °F (1992)
Degree Days  
Heating Degree Days 5    
Growing Degree Days 10 (Base 50)    
Moisture  
Dew Point 57 °F    
Average Humidity 83    
Maximum Humidity 94    
Minimum Humidity 74    
Precipitation  
Precipitation 0.00 in - - ()
Sea Level Pressure  
Sea Level Pressure 30.06 in    
Wind  
Wind Speed 6 mph (SSW)    
Max Wind Speed 14 mph    
Max Gust Speed 26 mph    
Visibility 10 miles    
Events Rain    
Averages and records for this station are not official NWS values.
T = Trace of Precipitation, MM = Missing Value Source: NWS Daily Summary

Daily Weather History Graph

Daily Weather History Graph

Search for Another Location

Airport or City:

Astronomy

Oct. 01, 2019 Rise Set
Actual Time 6:36 AM EDT 6:22 PM EDT
Civil Twilight 6:08 AM EDT 6:49 PM EDT
Nautical Twilight 5:36 AM EDT 7:21 PM EDT
Astronomical Twilight 5:03 AM EDT 7:54 PM EDT
Moon 9:50 AM EDT (10/1) 8:30 PM EDT (10/1)
Length of Visible Light 12h 40m
Length of Day
11h 45m
Waxing Crescent, 12% of the Moon is Illuminated
Oct 1
Waxing Crescent
Oct 5
First Quarter
Oct 13
Full
Oct 21
Last Quarter
Oct 27
New

Hourly Weather History & Observations

Time (EDT) Temp. Dew Point Humidity Pressure Visibility Wind Dir Wind Speed Gust Speed Precip Events Conditions
12:52 AM 55.0 °F 46.9 °F 74% 30.25 in 10.0 mi Calm Calm - N/A   Overcast
1:52 AM 54.0 °F 46.9 °F 77% 30.22 in 10.0 mi SSE 4.6 mph - N/A   Scattered Clouds
2:52 AM 55.0 °F 48.0 °F 77% 30.20 in 10.0 mi Variable 3.5 mph - N/A   Overcast
3:52 AM 55.9 °F 48.9 °F 77% 30.19 in 10.0 mi SSW 3.5 mph - N/A   Overcast
4:52 AM 57.0 °F 50.0 °F 77% 30.19 in 10.0 mi SSW 5.8 mph - N/A   Overcast
5:52 AM 57.9 °F 50.0 °F 75% 30.17 in 10.0 mi Variable 5.8 mph - 0.00 in   Overcast
6:52 AM 57.9 °F 51.1 °F 78% 30.17 in 10.0 mi SSW 8.1 mph - N/A   Overcast
7:52 AM 59.0 °F 52.0 °F 78% 30.17 in 10.0 mi SSW 5.8 mph - N/A   Overcast
8:52 AM 59.0 °F 53.1 °F 81% 30.16 in 10.0 mi Calm Calm - 0.00 in   Overcast
9:52 AM 60.1 °F 55.9 °F 86% 30.15 in 10.0 mi Variable 3.5 mph - 0.00 in Rain Light Rain
10:52 AM 62.1 °F 55.0 °F 78% 30.14 in 10.0 mi Variable 4.6 mph - 0.00 in   Overcast
11:41 AM 63.0 °F 55.9 °F 78% 30.11 in 10.0 mi South 6.9 mph 16.1 mph N/A   Overcast
11:52 AM 64.9 °F 57.0 °F 75% 30.11 in 10.0 mi SSW 10.4 mph 18.4 mph N/A   Overcast
12:52 PM 63.0 °F 57.0 °F 81% 30.08 in 10.0 mi Variable 6.9 mph - N/A   Overcast
1:52 PM 66.0 °F 59.0 °F 78% 30.05 in 10.0 mi SSW 8.1 mph - N/A   Overcast
2:52 PM 64.9 °F 60.1 °F 84% 30.03 in 10.0 mi SSW 8.1 mph - N/A   Overcast
3:52 PM 66.0 °F 60.1 °F 81% 30.01 in 10.0 mi SW 10.4 mph 23.0 mph N/A   Overcast
4:52 PM 66.0 °F 61.0 °F 84% 29.99 in 10.0 mi SW 13.8 mph 21.9 mph N/A   Overcast
5:52 PM 66.0 °F 62.1 °F 87% 29.98 in 10.0 mi SW 10.4 mph 18.4 mph N/A   Overcast
6:52 PM 66.0 °F 62.1 °F 87% 29.96 in 10.0 mi SW 11.5 mph 23.0 mph N/A   Mostly Cloudy
7:02 PM 66.0 °F 62.1 °F 87% 29.95 in 10.0 mi SW 10.4 mph 24.2 mph N/A   Scattered Clouds
7:52 PM 66.0 °F 62.1 °F 87% 29.94 in 10.0 mi SW 12.7 mph 23.0 mph N/A   Clear
8:52 PM 66.0 °F 62.1 °F 87% 29.92 in 10.0 mi SW 10.4 mph 21.9 mph N/A   Clear
9:52 PM 66.0 °F 63.0 °F 90% 29.91 in 10.0 mi SW 10.4 mph 23.0 mph N/A   Clear
10:38 PM 66.0 °F 64.0 °F 93% 29.89 in 10.0 mi SW 11.5 mph 24.2 mph N/A   Mostly Cloudy
10:48 PM 66.2 °F 64.4 °F 94% 29.89 in 10.0 mi SW 9.2 mph 26.5 mph N/A   Scattered Clouds
10:52 PM 66.0 °F 64.0 °F 93% 29.89 in 10.0 mi SW 12.7 mph 26.5 mph N/A   Scattered Clouds
11:52 PM 66.9 °F 63.0 °F 87% 29.87 in 10.0 mi SW 11.5 mph 21.9 mph N/A   Clear